Rotterdam, Netherlands

1:36 AM CEST on March 27, 2017 (GMT +0200)
Rotterdam

Weather History for EHRD - August, 2014

Change the Weather History Date:

Monday, August 18, 2014

  Actual Average Record
Temperature  
Mean Temperature 57 °F -  
Max Temperature 64 °F 66 °F 91 °F (2012)
Min Temperature 50 °F 53 °F 50 °F (2014)
Degree Days  
Heating Degree Days 8    
Growing Degree Days 7 (Base 50)    
Moisture  
Dew Point 51 °F    
Average Humidity 74    
Maximum Humidity 88    
Minimum Humidity 57    
Precipitation  
Precipitation 0.16 in - - ()
Sea Level Pressure  
Sea Level Pressure 29.70 in    
Wind  
Wind Speed 11 mph ()    
Max Wind Speed 20 mph    
Max Gust Speed 31 mph    
Visibility 8.5 miles    
Events Rain    
Averages and records for this station are not official NWS values.
T = Trace of Precipitation, MM = Missing Value Source: Averaged Metar Reports

Daily Weather History Graph

Daily Weather History Graph

Search for Another Location

Airport or City:

Trip Planner

Search our weather history database for the weather conditions in past years. The results will help you decide how hot, cold, wet, or windy it might be!

Date:

Astronomy

Aug. 18, 2014 Rise Set
Actual Time 6:30 AM CEST 9:00 PM CEST
Civil Twilight 5:53 AM CEST 9:37 PM CEST
Nautical Twilight 5:05 AM CEST 10:24 PM CEST
Astronomical Twilight 4:08 AM CEST 11:21 PM CEST
Moon 12:19 AM CEST (8/18) 3:59 PM CEST (8/18)
Length of Visible Light 15h 43m
Length of Day
14h 29m
Last Quarter, 41% of the Moon is Illuminated
Aug 18
Last Quarter
Aug 25
New
Sep 2
First Quarter
Sep 9
Full
Sep 16
Last Quarter

Hourly Weather History & Observations

Time (CEST) Temp. Dew Point Humidity Pressure Visibility Wind Dir Wind Speed Gust Speed Precip Events Conditions
12:00 AM 56 °F 50 °F 75% 29.67 in 22 mi WSW 8.9 mph - -   Partly Cloudy
12:25 AM 55.4 °F 50.0 °F 82% 29.65 in 6.2 mi WSW 5.8 mph - N/A   Unknown
12:55 AM 55.4 °F 51.8 °F 88% 29.65 in 6.2 mi SW 8.1 mph - N/A Rain Rain
1:00 AM 57 °F 51 °F 73% 29.66 in 17 mi WSW 8.9 mph - - Rain Rain
1:25 AM 55.4 °F 50.0 °F 82% 29.65 in 6.2 mi SW 8.1 mph - N/A   Partly Cloudy
1:55 AM 59.0 °F 50.0 °F 72% 29.65 in 6.2 mi WSW 8.1 mph - N/A   Mostly Cloudy
2:00 AM 58 °F 51 °F 69% 29.65 in 19 mi WSW 8.9 mph - -   Partly Cloudy
2:25 AM 59.0 °F 51.8 °F 77% 29.65 in 6.2 mi West 10.4 mph - N/A Rain Light Rain
2:55 AM 57.2 °F 48.2 °F 72% 29.65 in 6.2 mi West 11.5 mph - N/A   Unknown
3:00 AM 58 °F 47 °F 59% 29.65 in 22 mi West 11.2 mph - - Rain Rain
3:25 AM 57.2 °F 48.2 °F 72% 29.65 in 6.2 mi West 10.4 mph - N/A   Unknown
3:55 AM 57.2 °F 46.4 °F 67% 29.65 in 6.2 mi West 11.5 mph - N/A   Unknown
4:00 AM 58 °F 47 °F 57% 29.65 in 22 mi West 11.2 mph - -   Partly Cloudy
4:25 AM 57.2 °F 48.2 °F 72% 29.62 in 6.2 mi WSW 11.5 mph - N/A   Unknown
4:55 AM 57.2 °F 48.2 °F 72% 29.62 in 6.2 mi WSW 11.5 mph - N/A   Unknown
5:00 AM 58 °F 48 °F 59% 29.65 in 22 mi WSW 13.4 mph - -   Partly Cloudy
5:25 AM 57.2 °F 50.0 °F 77% 29.62 in 6.2 mi WSW 12.7 mph - N/A Rain Light Rain
5:55 AM 57.2 °F 48.2 °F 72% 29.62 in 6.2 mi West 15.0 mph - N/A Rain Light Rain
6:00 AM 57 °F 49 °F 66% 29.64 in 19 mi WSW 13.4 mph - - Rain Rain
6:25 AM 57.2 °F 48.2 °F 72% 29.62 in 6.2 mi WSW 11.5 mph - N/A   Scattered Clouds
6:55 AM 57.2 °F 48.2 °F 72% 29.62 in 6.2 mi WSW 15.0 mph - N/A   Unknown
7:00 AM 58 °F 49 °F 63% 29.64 in 14 mi WSW 15.7 mph - - Rain Light Rain Showers
7:25 AM 57.2 °F 50.0 °F 77% 29.62 in 6.2 mi West 15.0 mph - N/A   Unknown
7:55 AM 57.2 °F 50.0 °F 77% 29.62 in 6.2 mi WSW 15.0 mph - N/A   Scattered Clouds
8:00 AM 58 °F 50 °F 67% 29.63 in 16 mi WSW 15.7 mph - - Rain Rain
8:25 AM 59.0 °F 51.8 °F 77% 29.62 in 6.2 mi WSW 16.1 mph - N/A   Partly Cloudy
8:55 AM 57.2 °F 51.8 °F 82% 29.62 in 6.2 mi WSW 18.4 mph - N/A Rain Light Rain Showers
9:00 AM 57 °F 53 °F 80% 29.64 in 11 mi WSW 15.7 mph - - Rain Heavy Rain
9:25 AM 57.2 °F 51.8 °F 82% 29.62 in 6.2 mi WSW 17.3 mph - N/A Rain Light Rain
9:55 AM 59.0 °F 53.6 °F 82% 29.62 in 6.2 mi WSW 13.8 mph - N/A   Overcast
10:00 AM 59 °F 52 °F 70% 29.65 in 17 mi West 15.7 mph - - Rain Rain
10:25 AM 59.0 °F 51.8 °F 77% 29.65 in 6.2 mi West 19.6 mph - N/A Rain Light Rain
10:55 AM 60.8 °F 51.8 °F 72% 29.65 in 6.2 mi West 18.4 mph - N/A Rain Light Rain
11:00 AM 60 °F 52 °F 69% 29.67 in 11 mi West 17.9 mph - - Rain Rain
11:25 AM 59.0 °F 53.6 °F 82% 29.65 in 6.2 mi West 17.3 mph 31.1 mph N/A Rain Light Rain
11:55 AM 60.8 °F 55.4 °F 82% 29.65 in 6.2 mi WSW 13.8 mph - N/A   Mostly Cloudy
12:00 PM 61 °F 53 °F 68% 29.68 in 15 mi West 17.9 mph - - Rain Rain
12:25 PM 60.8 °F 53.6 °F 77% 29.68 in 6.2 mi West 18.4 mph 29.9 mph N/A Rain Light Rain
12:55 PM 60.8 °F 51.8 °F 72% 29.68 in 6.2 mi West 15.0 mph - N/A   Scattered Clouds
1:00 PM 63 °F 54 °F 64% 29.70 in 17 mi West 17.9 mph - - Rain Rain
1:25 PM 59.0 °F 53.6 °F 82% 29.68 in 6.2 mi West 17.3 mph 31.1 mph N/A Rain Light Rain
1:55 PM 59.0 °F 53.6 °F 82% 29.71 in 6.2 mi West 19.6 mph - N/A Rain Rain
2:00 PM 61 °F 54 °F 70% 29.72 in 15 mi West 17.9 mph - - Rain Rain
2:25 PM 59.0 °F 53.6 °F 82% 29.71 in 6.2 mi West 13.8 mph 25.3 mph N/A   Mostly Cloudy
2:55 PM 60.8 °F 53.6 °F 77% 29.71 in 6.2 mi West 18.4 mph - N/A   Mostly Cloudy
3:00 PM 62 °F 54 °F 69% 29.73 in 17 mi West 17.9 mph - -   Partly Cloudy
3:25 PM 57.2 °F 53.6 °F 88% 29.74 in 5.0 mi West 16.1 mph 27.6 mph N/A Rain Rain Showers
3:55 PM 60.8 °F 55.4 °F 82% 29.74 in 6.2 mi WNW 15.0 mph 29.9 mph N/A   Scattered Clouds
4:00 PM 62 °F 55 °F 72% 29.75 in 17 mi WNW 20.1 mph - - Rain Rain
4:25 PM 62.6 °F 53.6 °F 72% 29.74 in 6.2 mi WNW 19.6 mph - N/A   Partly Cloudy
4:55 PM 62.6 °F 53.6 °F 72% 29.77 in 6.2 mi WNW 17.3 mph - N/A   Overcast
5:00 PM 64 °F 55 °F 64% 29.78 in 12 mi WNW 17.9 mph - -   Partly Cloudy
5:25 PM 62.6 °F 53.6 °F 72% 29.77 in 6.2 mi WNW 19.6 mph - N/A   Mostly Cloudy
5:55 PM 60.8 °F 51.8 °F 72% 29.77 in 6.2 mi WNW 15.0 mph - N/A   Scattered Clouds
6:00 PM 60 °F 53 °F 71% 29.79 in 9 mi WNW 13.4 mph - - Rain Light Rain Showers
6:25 PM 60.8 °F 53.6 °F 77% 29.77 in 6.2 mi NW 11.5 mph - N/A   Scattered Clouds
6:55 PM 62.6 °F 53.6 °F 72% 29.77 in 6.2 mi NW 13.8 mph - N/A   Scattered Clouds
7:00 PM 62 °F 53 °F 65% 29.80 in 9 mi WNW 13.4 mph - - Rain Light Rain Showers
7:25 PM 60.8 °F 53.6 °F 77% 29.80 in 6.2 mi NW 9.2 mph - N/A   Mostly Cloudy
7:55 PM 59.0 °F 50.0 °F 72% 29.80 in 6.2 mi WNW 11.5 mph - N/A   Scattered Clouds
8:00 PM 60 °F 51 °F 63% 29.81 in 11 mi WNW 11.2 mph - - Rain Rain
8:25 PM 59.0 °F 50.0 °F 72% 29.80 in 6.2 mi WNW 11.5 mph - N/A   Partly Cloudy
8:55 PM 57.2 °F 48.2 °F 72% 29.80 in 6.2 mi WNW 9.2 mph - N/A   Unknown
9:00 PM 57 °F 48 °F 65% 29.82 in 12 mi WNW 6.7 mph - -  
9:25 PM 55.4 °F 48.2 °F 77% 29.80 in 6.2 mi West 6.9 mph - N/A   Partly Cloudy
9:55 PM 55.4 °F 48.2 °F 77% 29.83 in 6.2 mi West 5.8 mph - N/A   Partly Cloudy
10:00 PM 54 °F 48 °F 73% 29.83 in 12 mi West 4.5 mph - -  
10:25 PM 51.8 °F 46.4 °F 82% 29.80 in 6.2 mi WSW 4.6 mph - N/A   Unknown
10:55 PM 50.0 °F 46.4 °F 87% 29.83 in 6.2 mi WSW 5.8 mph - N/A   Partly Cloudy
11:00 PM 50 °F 46 °F 83% 29.83 in 12 mi WSW 6.7 mph - -   Scattered Clouds
11:25 PM 50.0 °F 46.4 °F 87% 29.83 in 6.2 mi SW 4.6 mph - N/A   Unknown
11:55 PM 51.8 °F 48.2 °F 88% 29.83 in 6.2 mi WSW 4.6 mph - N/A   Unknown